This demonstration page uses our WeatherBlox Daily Observations layout. Learn more.

Left ArrowRight Arrow

39.29038, -76.61219

Hourly Observations for February 6, 2019

Temp ( °F °C ) Dew Point ( °F °C ) Humidity (%) Winds ( mph kmh ) Pressure ( in mb ) Visibility ( mi km ) Precip ( " mm )
12:54 am 00:54 undefined 49 9.4 42 5.6 77 77 undefined N/A 30.11 1020 N/A N/A
1:54 am 01:54 undefined 50 10 42 5.6 74 74 undefined N/A 30.11 1020 N/A N/A
2:54 am 02:54 undefined 48 8.9 41 5 77 77 undefined N/A 30.12 1020 N/A N/A
3:54 am 03:54 undefined 48 8.9 41 5 77 77 undefined N/A 30.13 1020 N/A N/A
4:54 am 04:54 undefined 45 7.2 40 4.4 83 83 undefined N/A 30.13 1020 N/A N/A
5:54 am 05:54 undefined 44 6.7 39 3.9 83 83 undefined N/A 30.14 1021 N/A N/A
6:54 am 06:54 undefined 45 7.2 39 3.9 80 80 undefined N/A 30.16 1021 N/A N/A
7:54 am 07:54 undefined 45 7.2 38 3.3 77 77 undefined N/A 30.19 1022 N/A N/A
8:54 am 08:54 undefined 46 7.8 38 3.3 73 73 undefined N/A 30.22 1023 N/A N/A
9:54 am 09:54 undefined 47 8.3 38 3.3 71 71 undefined N/A 30.21 1023 N/A N/A
10:54 am 10:54 undefined 48 8.9 39 3.9 71 71 undefined N/A 30.21 1023 N/A N/A
11:54 am 11:54 undefined 49 9.4 39 3.9 69 69 undefined N/A 30.18 1022 N/A N/A
12:54 pm 12:54 undefined 48 8.9 38 3.3 68 68 undefined N/A 30.12 1020 N/A N/A
1:54 pm 13:54 undefined 49 9.4 38 3.3 66 66 undefined N/A 30.09 1019 N/A N/A
2:54 pm 14:54 undefined 50 10 39 3.9 66 66 undefined N/A 30.06 1018 N/A N/A
3:54 pm 15:54 undefined 49 9.4 40 4.4 71 71 undefined N/A 30.04 1017 N/A N/A
4:54 pm 16:54 undefined 48 8.9 39 3.9 71 71 undefined N/A 30.03 1017 N/A 0.01 0.25
5:54 pm 17:54 undefined 47 8.3 39 3.9 74 74 undefined N/A 30.03 1017 N/A N/A
6:54 pm 18:54 undefined 45 7.2 40 4.4 83 83 undefined N/A 30.02 1017 N/A 0.04 1.02
7:54 pm 19:54 undefined 44 6.7 40 4.4 85 85 undefined N/A 30.01 1016 N/A 0.01 0.25
8:54 pm 20:54 undefined 44 6.7 40 4.4 85 85 undefined N/A 30.00 1016 N/A 0.01 0.25
9:54 pm 21:54 undefined 44 6.7 41 5 89 89 undefined N/A 29.99 1016 N/A 0.02 0.51
10:54 pm 22:54 undefined 45 7.2 41 5 86 86 undefined N/A 29.99 1016 N/A 0.09 2.29
11:54 pm 23:54 undefined 45 7.2 42 5.6 90 90 undefined N/A 30.01 1016 N/A N/A

Powered by AerisWeather